Volver al catálogo

CZ-4 DEB

ActivoSSO
NORAD 37617·DEBRIS·🇨🇳 China

Lanzado Sep 3, 1990 desde Taiyuan Satellite Launch Center

Loading…

Próximos Pases (próximas 24 horas)

TLE

ObsoletoSource: Space-Track

Época: Aug 30, 2026, 04:01 UTC

1 37617U 90081DD  26242.16780358  .00000328  00000-0  23333-3 0  9996
2 37617  98.9873 220.1085 0009556  52.7675   7.2982 14.04402335648030

Sigue CZ-4 DEB en tiempo real con AllMySat

Download on the App Store